Regional Weather Roundup
Issued by NWS

Home | Current Version | Previous Version | Graphics & Text | Print | Product List | Glossary On
Versions: 1 2 3 4 5 6 7 8 9 10 11 12 13 14 15 16 17 18 19 20 21 22 23 24 25 26 27 28 29 30 31 32 33 34 35 36 37 38 39 40 41 42 43 44 45 46 47 48 49 50
877
ASUS45 KPSR 271610
RWRAZ

ARIZONA HOURLY REGIONAL WEATHER ROUNDUP
NATIONAL WEATHER SERVICE PHOENIX AZ
900 AM MST THU APR 27 2017

NOTE: FAIR INDICATES FEW OR NO CLOUDS BELOW 12,000 FEET WITH NO
SIGNIFICANT WEATHER AND/OR OBSTRUCTIONS TO VISIBILITY.

AZZ001>003-036-271700-
NORTHWEST ARIZONA

CITY           SKY/WX    TMP DP  RH WIND       PRES   REMARKS
BULLHEAD CITY  SUNNY     79  39  24 NW7       29.69S
KINGMAN        SUNNY     70  32  24 N14       29.80R
$$

AZZ004>008-015-016-018-271700-
NORTH CENTRAL ARIZONA

CITY           SKY/WX    TMP DP  RH WIND       PRES   REMARKS
GRAND CANYON   SUNNY     55  31  39 W14G24    29.85S
WILLIAMS       MOSUNNY   57  32  38 NW17G24   29.89R
PRESCOTT       SUNNY     64  38  38 W13       29.83F
FLAGSTAFF      MOSUNNY   54  35  48 W14G23    29.87R
PAYSON         MOSUNNY   63  27  25 W7        29.87S
PAGE           PTSUNNY   62  34  35 NW15G22   29.74R
$$

AZZ009>014-017-271700-
NORTHEAST ARIZONA

CITY           SKY/WX    TMP DP  RH WIND       PRES   REMARKS
WINSLOW        MOSUNNY   68  34  28 W20G30    29.78F
SAINT JOHNS    PTSUNNY   63  31  30 W28G39    29.80S
WINDOW ROCK    MOSUNNY   58  32  37 W21G30    29.78F
SHOW LOW       PTSUNNY   55  28  35 SW16G26   29.88R
$$

AZZ540-542>544-546-548-271700-
GREATER PHOENIX AREA

CITY           SKY/WX    TMP DP  RH WIND       PRES   REMARKS
PHOENIX        PTSUNNY   76  32  20 E5        29.69S
BUCKEYE        PTSUNNY   75  32  20 S5        29.71R
GLENDALE       PTSUNNY   77  28  16 VRB6      29.71S
LUKE AFB       MOSUNNY   76  33  20 SW6       29.70R
DEER VALLEY    MOSUNNY   74  28  18 CALM      29.71R
SCOTTSDALE     MOSUNNY   76  30  18 E7        29.73R
MESA-GATEWAY   PTSUNNY   73  36  25 SE6       29.72S
CHANDLER       SUNNY     75  32  20 SE7       29.70S
$$

AZZ539-553-271700-
SOUTHWEST MARICOPA COUNTY AND PINAL COUNTY

CITY           SKY/WX    TMP DP  RH WIND       PRES   REMARKS
CASA GRANDE    CLOUDY    76  34  21 S10       29.72S
GILA BEND      PTSUNNY   79  40  24 SW12      29.68S
$$

AZZ503-504-507>509-271700-
SOUTHEAST ARIZONA

CITY           SKY/WX    TMP DP  RH WIND       PRES   REMARKS
TUCSON         PTSUNNY   77  34  21 S10       29.79S
DAVIS-MONTHAN  PTSUNNY   76  35  22 S13       29.78F
RYAN FIELD     SUNNY     79  34  19 SW10      29.78S
NOGALES        SUNNY     73  37  27 S14G22    29.86S
SIERRA VISTA   SUNNY     71  32  23 SW15G22   29.89R
DOUGLAS        SUNNY     73  40  30 SW24G30   29.86F
SAFFORD        PTSUNNY   71  30  21 CALM      29.76F
$$

AZZ532-271700-
SOUTHWEST ARIZONA

CITY           SKY/WX    TMP DP  RH WIND       PRES   REMARKS
YUMA           PTSUNNY   78  48  34 W7        29.68R
$$

CAZ041-043-047-048-061-525>527-560>570-271700-
SOUTHERN CALIFORNIA

CITY           SKY/WX    TMP DP  RH WIND       PRES   REMARKS
DOWNTOWN L.A.  SUNNY     68  57  68 VRB3      29.81S
L.A. AIRPORT   PTSUNNY   64  57  78 W7        29.82S
SAN DIEGO      CLOUDY    63  58  83 S6        29.85S
BURBANK        SUNNY     71  45  39 N18G33    29.80F
ONTARIO        PTSUNNY   61  54  77 VRB5      29.82F
RIVERSIDE      PTSUNNY   62  54  74 E3        29.82F
PALM SPRINGS   SUNNY     77  45  32 NW15G23   29.72R
EL CENTRO NAS  PTSUNNY   82  43  25 N13       29.69R
IMPERIAL       SUNNY     79  50  36 NW13      29.67R
BLYTHE         PTSUNNY   82  39  21 NW15      29.68R
NEEDLES        SUNNY     81  45  28 NE3       29.70S
$$

NVZ020-UTZ003-271700-
SOUTHERN NEVADA-UTAH

CITY           SKY/WX    TMP DP  RH WIND       PRES   REMARKS
LAS VEGAS      MOSUNNY   74  23  15 N23       29.75F
SALT LAKE CITY MOSUNNY   46  29  51 NW20G28   29.83S
$$

NMZ009-TXZ055-271700-
NEW MEXICO-WEST TEXAS

CITY           SKY/WX    TMP DP  RH WIND       PRES   REMARKS
ALBUQUERQUE    CLOUDY    63  29  27 W25G33    29.71F
EL PASO        PTSUNNY   73  24  16 SW15G21   29.78F
$$


........................KEY........................
SKY/WX - SKY CONDITION/WEATHER
TMP    - TEMPERATURE IN FAHRENHEIT
DP     - DEW POINT IN FAHRENHEIT
RH     - RELATIVE HUMIDITY IN PERCENT
WIND   - DIRECTION AND SPEED IN MILES PER HOUR (MPH)
VRB    - VARIABLE WIND DIRECTION
PRES   - MEAN SEA LEVEL PRESSURE IN INCHES OF MERCURY
         F - FALLING PRESSURE   R - RISING PRESSURE
         S - STEADY PRESSURE
VSB    - VISIBILITY IN MILES
HX     - HEAT INDEX IN FAHRENHEIT
WCI    - WIND CHILL INDEX IN FAHRENHEIT
TC     - TEMPERATURE IN CELSIUS WHICH IS ALSO KNOWN AS
         TEMPERATURE IN CENTIGRADE
AFB    - AIR FORCE BASE
         LUKE AFB IS LUKE AIR FORCE BASE
         DAVIS-MONTHAN IS DAVIS-MONTHAN AIR FORCE BASE
NAS    - NAVAL AIR STATION
         EL CENTRO NAS IS EL CENTRO NAVAL AIR STATION
N/A    - NOT AVAILABLE





USA.gov is the U.S. government's official web portal to all federal, state and local government web resources and services.